770  
ASUS46 KEKA 250816  
RWREKA  
EUREKA AREA WEATHER ROUNDUP  
NATIONAL WEATHER SERVICE EUREKA CA  
100 AM PDT WED APR 25 2018  
 
NOTE: "FAIR" INDICATES FEW OR NO CLOUDS BELOW 12,000 FEET WITH NO  
SIGNIFICANT WEATHER AND/OR S TO VISIBILITY
.  
 
SOUTHWEST OREGON...  
 
CITY SKY/WX TMP DP RH WIND PRES REMARKS
 
MEDFORD PTCLDY 61 42 49 SE3 29.99R  
KLAMATH FALLS MOCLDY 47 36 65 CALM 30.11R  
NORTH BEND MOCLDY 49 48 97 W6 30.06R FOG  
ROSEBURG MOCLDY 60 44 55 CALM 30.00R  
SEXTON SUMMIT MOCLDY 57 31 37 N8 30.08R  
BROOKINGS LGT RAIN 50 50 100 SE7 30.06R VSB 3/4  
 
NORTHWEST CALIFORNIA...  
 
CITY SKY/WX TMP DP RH WIND PRES REMARKS
 
CRESCENT CITY CLOUDY 51 50 96 S7 30.06S  
MCKINLEYVILLE CLOUDY 53 49 86 CALM 30.03F FOG  
EUREKA CLOUDY 52 32 46 E3 30.04F  
FORTUNA CLOUDY 50 50 100 CALM 30.04S  
WEAVERVILLE N/A 48 37 66 N3 30.06R  
TRINITY CENTER NOT AVBL  
UKIAH CLEAR 53 47 79 S5 30.03R  
 
NORTH & CENTRAL CALIFORNIA...  
 
CITY SKY/WX TMP DP RH WIND PRES REMARKS
 
YREKA PTCLDY 51 36 56 NE10 30.05R  
MOUNT SHASTA PTCLDY 47 35 63 CALM 30.10R  
REDDING PTCLDY 61 50 67 N5 29.97R  
RED BLUFF PTCLDY 58 50 75 NW5 29.98R  
CHICO NOT AVBL  
YUBA CITY PTCLDY 57 49 74 E5 29.97R  
SACRAMENTO PTCLDY 54 49 83 S3 29.98R  
SANTA ROSA CLOUDY 48 46 93 CALM 30.04S  
NAPA CLEAR 48 46 93 W9 30.03S  
SAN FRANCISCO PTCLDY 53 46 77 W9 30.04S  
OAKLAND PTCLDY 51 48 89 NW10 30.04S  
SALINAS CLOUDY 53 48 83 W5 30.05R  
MONTEREY CLOUDY 52 48 86 CALM 30.06R  
 

 
 
 
CLICK HERE TO GO TO PREVIOUS BULLETINS.

The Nexlab CA Page Main Text Page